DLH898 EHAM-EDDF

Flight info

Callsign DLH898
Flight time 0h 54m
Altitude 35000
Route EDUPO Z739 MISGO DCT DIXAT DIXAT1A
Aircraft A310/H-SDFGHIM1RTUWXY/LB1

Departure

Time 2026-04-17 12:57
Airport Amsterdam Airport Schiphol (EHAM)

Arrival

Time 2026-04-17 13:52
Airport Frankfurt Main Airport (EDDF)
Time Latitude Longitude Altitude Speed Heading
2026-04-17 12:30 52.31018 4.77180 4 ft 0 kts 183°
2026-04-17 12:39 52.31024 4.77181 4 ft 2 kts 179°
2026-04-17 12:40 52.31041 4.77181 5 ft 2 kts 174°
2026-04-17 12:40 52.31057 4.77177 6 ft 2 kts 168°
2026-04-17 12:40 52.31073 4.77169 7 ft 2 kts 145°
2026-04-17 12:40 52.31083 4.77147 8 ft 2 kts 98°
2026-04-17 12:41 52.31083 4.77137 7 ft 0 kts 89°
2026-04-17 12:41 52.31083 4.77138 7 ft 0 kts 89°
2026-04-17 12:41 52.31083 4.77148 8 ft 2 kts 89°
2026-04-17 12:42 52.31083 4.77171 6 ft 2 kts 89°
2026-04-17 12:42 52.31083 4.77179 6 ft 0 kts 89°
2026-04-17 12:46 52.31084 4.77277 5 ft 16 kts 91°
2026-04-17 12:46 52.31062 4.77456 3 ft 8 kts 132°
2026-04-17 12:46 52.31036 4.77479 3 ft 2 kts 133°
2026-04-17 12:47 52.31032 4.77495 3 ft 2 kts 113°
2026-04-17 12:47 52.31028 4.77526 3 ft 6 kts 104°
2026-04-17 12:47 52.30998 4.77594 2 ft 6 kts 145°
2026-04-17 12:47 52.30994 4.77598 2 ft 2 kts 147°
2026-04-17 12:48 52.30957 4.77611 2 ft 9 kts 178°
2026-04-17 12:48 52.30849 4.77607 2 ft 20 kts 185°
2026-04-17 12:48 52.30728 4.77596 3 ft 0 kts 184°
2026-04-17 12:52 52.30694 4.77591 3 ft 13 kts 184°
2026-04-17 12:52 52.30568 4.77560 3 ft 18 kts 174°
2026-04-17 12:52 52.30514 4.77590 3 ft 0 kts 156°
2026-04-17 12:56 52.30508 4.77594 3 ft 3 kts 155°
2026-04-17 12:56 52.30466 4.77626 4 ft 10 kts 155°
2026-04-17 12:56 52.30414 4.77616 5 ft 9 kts 208°
2026-04-17 12:56 52.30366 4.77521 3 ft 13 kts 241°
2026-04-17 12:57 52.30263 4.77241 -1 ft 59 kts 237°
2026-04-17 12:57 52.29893 4.76271 0 ft 142 kts 238°
2026-04-17 12:57 52.29255 4.74653 288 ft 187 kts 237°
2026-04-17 12:57 52.28532 4.72882 659 ft 188 kts 237°
2026-04-17 12:58 52.27836 4.70976 1011 ft 199 kts 240°
2026-04-17 12:58 52.27319 4.69778 1846 ft 193 kts 230°
2026-04-17 12:58 52.26245 4.68396 2856 ft 207 kts 197°
2026-04-17 12:58 52.24789 4.68575 3961 ft 219 kts 153°
2026-04-17 12:59 52.23637 4.70262 5227 ft 233 kts 129°
2026-04-17 12:59 52.22651 4.72437 5820 ft 243 kts 124°
2026-04-17 12:59 52.21742 4.74729 5823 ft 242 kts 122°
2026-04-17 12:59 52.20859 4.77064 5814 ft 242 kts 122°
2026-04-17 13:00 52.19942 4.79509 6039 ft 271 kts 121°
2026-04-17 13:00 52.18936 4.82215 7338 ft 283 kts 121°
2026-04-17 13:00 52.17920 4.85022 8864 ft 290 kts 120°
2026-04-17 13:00 52.17239 4.88106 10349 ft 294 kts 95°
2026-04-17 13:01 52.17552 4.91402 11733 ft 300 kts 71°
2026-04-17 13:01 52.18316 4.94615 13020 ft 307 kts 68°
2026-04-17 13:01 52.19085 4.97887 14237 ft 313 kts 70°
2026-04-17 13:01 52.19813 5.01278 15393 ft 320 kts 71°
2026-04-17 13:02 52.20512 5.04762 16509 ft 326 kts 72°
2026-04-17 13:02 52.21196 5.08310 17572 ft 331 kts 72°
2026-04-17 13:02 52.21881 5.11881 18569 ft 337 kts 72°
2026-04-17 13:02 52.22581 5.15557 19545 ft 342 kts 73°
2026-04-17 13:03 52.23277 5.19303 20458 ft 347 kts 73°
2026-04-17 13:03 52.23983 5.23104 21350 ft 353 kts 75°
2026-04-17 13:03 52.24134 5.27075 22197 ft 356 kts 100°
2026-04-17 13:03 52.23202 5.30817 23014 ft 359 kts 125°
2026-04-17 13:04 52.21569 5.33949 23729 ft 366 kts 133°
2026-04-17 13:04 52.19841 5.37048 24383 ft 373 kts 131°
2026-04-17 13:04 52.18188 5.40334 24715 ft 376 kts 128°
2026-04-17 13:04 52.16617 5.43764 24933 ft 379 kts 126°
2026-04-17 13:05 52.15078 5.47253 25748 ft 378 kts 126°
2026-04-17 13:05 52.13557 5.50761 26564 ft 378 kts 125°
2026-04-17 13:05 52.12057 5.54192 27340 ft 377 kts 126°
2026-04-17 13:05 52.10530 5.57670 28113 ft 376 kts 126°
2026-04-17 13:06 52.09008 5.61132 28842 ft 375 kts 126°
2026-04-17 13:06 52.07489 5.64584 29526 ft 374 kts 126°
2026-04-17 13:06 52.06076 5.67749 30146 ft 373 kts 128°
2026-04-17 13:06 52.04433 5.71004 30768 ft 372 kts 131°
2026-04-17 13:07 52.02725 5.74175 31375 ft 371 kts 131°
2026-04-17 13:07 52.01030 5.77281 31852 ft 375 kts 131°
2026-04-17 13:07 51.99273 5.80507 31990 ft 386 kts 131°
2026-04-17 13:07 51.97509 5.83817 32353 ft 390 kts 131°
2026-04-17 13:08 51.95727 5.87159 32828 ft 391 kts 131°
2026-04-17 13:08 51.93937 5.90483 33344 ft 391 kts 131°
2026-04-17 13:08 51.92160 5.93821 33841 ft 391 kts 131°
2026-04-17 13:08 51.90374 5.97128 34326 ft 390 kts 131°
2026-04-17 13:09 51.88600 6.00439 34751 ft 390 kts 131°
2026-04-17 13:09 51.86807 6.03778 34912 ft 394 kts 131°
2026-04-17 13:09 51.84994 6.07104 34950 ft 393 kts 131°
2026-04-17 13:10 51.81406 6.13662 34979 ft 389 kts 131°
2026-04-17 13:10 51.77825 6.20226 35008 ft 388 kts 131°
2026-04-17 13:11 51.74173 6.26895 35012 ft 407 kts 132°
2026-04-17 13:11 51.72283 6.30324 35001 ft 419 kts 131°
2026-04-17 13:11 51.70332 6.33904 35008 ft 431 kts 131°
2026-04-17 13:11 51.68305 6.37571 35001 ft 443 kts 132°
2026-04-17 13:12 51.66237 6.41336 35008 ft 453 kts 131°
2026-04-17 13:12 51.59964 6.52654 34993 ft 451 kts 132°
2026-04-17 13:13 51.55796 6.60214 34994 ft 451 kts 132°
2026-04-17 13:13 51.51599 6.67739 35003 ft 451 kts 132°
2026-04-17 13:14 51.47449 6.75216 34996 ft 452 kts 132°
2026-04-17 13:14 51.43249 6.82719 35007 ft 451 kts 132°
2026-04-17 13:15 51.39099 6.90292 34993 ft 452 kts 129°
2026-04-17 13:15 51.35213 6.98202 35004 ft 452 kts 128°
2026-04-17 13:16 51.31326 7.06112 35005 ft 453 kts 129°
2026-04-17 13:16 51.27378 7.13981 34997 ft 453 kts 128°
2026-04-17 13:17 51.25236 7.17569 35010 ft 451 kts 143°
2026-04-17 13:17 51.22484 7.19921 35021 ft 450 kts 159°
2026-04-17 13:17 51.16576 7.23332 34996 ft 452 kts 158°
2026-04-17 13:18 51.10875 7.27632 35003 ft 453 kts 153°
2026-04-17 13:18 51.05313 7.32320 35007 ft 453 kts 152°
2026-04-17 13:19 50.99723 7.36974 35008 ft 452 kts 153°
2026-04-17 13:19 50.94177 7.41535 34999 ft 453 kts 153°
2026-04-17 13:20 50.88573 7.46128 34997 ft 453 kts 153°
2026-04-17 13:20 50.82977 7.50670 35002 ft 452 kts 153°
2026-04-17 13:21 50.77381 7.55245 34995 ft 452 kts 153°
2026-04-17 13:21 50.71791 7.59799 34993 ft 452 kts 153°
2026-04-17 13:22 50.66187 7.64327 35004 ft 452 kts 153°
2026-04-17 13:22 50.60575 7.68852 34999 ft 453 kts 153°
2026-04-17 13:23 50.54964 7.73383 34994 ft 453 kts 153°
2026-04-17 13:23 50.49390 7.77861 35000 ft 453 kts 153°
2026-04-17 13:24 50.43783 7.82355 35001 ft 452 kts 152°
2026-04-17 13:24 50.38709 7.88141 35001 ft 453 kts 139°
2026-04-17 13:25 50.33899 7.94540 34886 ft 451 kts 141°
2026-04-17 13:25 50.31436 7.97644 33654 ft 461 kts 142°
2026-04-17 13:25 50.28891 8.00750 32923 ft 461 kts 142°
2026-04-17 13:26 50.26388 8.03826 32413 ft 453 kts 140°
2026-04-17 13:26 50.24224 8.07357 31802 ft 448 kts 128°
2026-04-17 13:26 50.22395 8.11297 31130 ft 445 kts 124°
2026-04-17 13:26 50.20649 8.15241 30502 ft 440 kts 125°
2026-04-17 13:27 50.18857 8.19101 29868 ft 436 kts 127°
2026-04-17 13:27 50.17058 8.22805 29253 ft 432 kts 128°
2026-04-17 13:27 50.15212 8.26487 28602 ft 429 kts 128°
2026-04-17 13:27 50.13399 8.30147 28021 ft 424 kts 128°
2026-04-17 13:28 50.11624 8.33803 27202 ft 422 kts 124°
2026-04-17 13:28 50.10444 8.38005 26283 ft 427 kts 102°
2026-04-17 13:28 50.10358 8.42581 25611 ft 422 kts 80°
2026-04-17 13:28 50.11283 8.46876 24963 ft 417 kts 65°
2026-04-17 13:29 50.12576 8.50903 24294 ft 413 kts 63°
2026-04-17 13:29 50.13796 8.54934 23644 ft 410 kts 66°
2026-04-17 13:29 50.14863 8.58967 23010 ft 405 kts 69°
2026-04-17 13:29 50.15857 8.63047 22375 ft 401 kts 69°
2026-04-17 13:30 50.16830 8.67114 21720 ft 397 kts 69°
2026-04-17 13:30 50.17764 8.71150 21068 ft 393 kts 70°
2026-04-17 13:30 50.18697 8.75137 20418 ft 389 kts 70°
2026-04-17 13:30 50.19633 8.79093 19770 ft 386 kts 70°
2026-04-17 13:31 50.20559 8.83004 19116 ft 382 kts 69°
2026-04-17 13:31 50.21465 8.86830 18474 ft 378 kts 70°
2026-04-17 13:31 50.22377 8.90723 17808 ft 374 kts 70°
2026-04-17 13:31 50.23267 8.94518 17163 ft 371 kts 70°
2026-04-17 13:32 50.24145 8.98286 16496 ft 368 kts 70°
2026-04-17 13:32 50.25001 9.01987 15887 ft 365 kts 70°
2026-04-17 13:32 50.25871 9.05690 15268 ft 362 kts 70°
2026-04-17 13:32 50.26718 9.09366 14750 ft 356 kts 70°
2026-04-17 13:33 50.27564 9.12983 14162 ft 352 kts 70°
2026-04-17 13:33 50.28393 9.16570 13494 ft 349 kts 70°
2026-04-17 13:33 50.29211 9.20127 12840 ft 346 kts 70°
2026-04-17 13:33 50.30033 9.23656 12196 ft 343 kts 70°
2026-04-17 13:34 50.30474 9.27284 11538 ft 340 kts 90°
2026-04-17 13:34 50.30035 9.30865 10913 ft 336 kts 112°
2026-04-17 13:34 50.28786 9.33906 10252 ft 332 kts 134°
2026-04-17 13:34 50.26940 9.35940 9602 ft 328 kts 156°
2026-04-17 13:35 50.24738 9.36732 8935 ft 325 kts 179°
2026-04-17 13:35 50.22536 9.36142 8280 ft 320 kts 201°
2026-04-17 13:35 50.20684 9.34290 7594 ft 317 kts 224°
2026-04-17 13:35 50.19458 9.31466 6922 ft 314 kts 248°
2026-04-17 13:36 50.19055 9.28165 6245 ft 310 kts 269°
2026-04-17 13:36 50.19146 9.24828 5595 ft 307 kts 274°
2026-04-17 13:36 50.19306 9.21510 4924 ft 305 kts 274°
2026-04-17 13:36 50.19467 9.18273 4373 ft 300 kts 274°
2026-04-17 13:37 50.19628 9.15061 4166 ft 297 kts 275°
2026-04-17 13:37 50.19942 9.11951 4046 ft 284 kts 292°
2026-04-17 13:37 50.21103 9.09626 3965 ft 268 kts 326°
2026-04-17 13:37 50.22830 9.08750 4030 ft 260 kts 349°
2026-04-17 13:38 50.24609 9.08064 4221 ft 271 kts 348°
2026-04-17 13:38 50.26421 9.07321 4094 ft 263 kts 344°
2026-04-17 13:38 50.28189 9.06570 4044 ft 264 kts 344°
2026-04-17 13:38 50.29949 9.05886 4048 ft 264 kts 351°
2026-04-17 13:39 50.31760 9.06128 4047 ft 263 kts 19°
2026-04-17 13:39 50.33281 9.07694 4026 ft 264 kts 48°
2026-04-17 13:39 50.34146 9.10203 4024 ft 266 kts 76°
2026-04-17 13:39 50.34246 9.13083 4002 ft 266 kts 93°
2026-04-17 13:40 50.34076 9.15959 4003 ft 266 kts 103°
2026-04-17 13:40 50.33258 9.18523 4042 ft 266 kts 129°
2026-04-17 13:40 50.32016 9.20671 4033 ft 266 kts 134°
2026-04-17 13:40 50.30732 9.22743 4050 ft 266 kts 134°
2026-04-17 13:41 50.29436 9.24823 4036 ft 265 kts 134°
2026-04-17 13:41 50.28157 9.26879 4064 ft 263 kts 135°
2026-04-17 13:41 50.26782 9.28728 4030 ft 260 kts 152°
2026-04-17 13:41 50.25055 9.29418 4032 ft 254 kts 182°
2026-04-17 13:42 50.23436 9.28730 4018 ft 234 kts 213°
2026-04-17 13:42 50.22254 9.27067 4038 ft 235 kts 236°
2026-04-17 13:42 50.21825 9.24672 4046 ft 228 kts 276°
2026-04-17 13:42 50.22154 9.22295 4205 ft 228 kts 266°
2026-04-17 13:43 50.21596 9.19996 4398 ft 238 kts 234°
2026-04-17 13:43 50.20424 9.18137 4164 ft 238 kts 219°
2026-04-17 13:43 50.19131 9.16585 4132 ft 229 kts 218°
2026-04-17 13:43 50.18081 9.14703 4228 ft 232 kts 245°
2026-04-17 13:44 50.17609 9.12305 4312 ft 233 kts 250°
2026-04-17 13:44 50.16855 9.09992 4051 ft 240 kts 240°
2026-04-17 13:44 50.16034 9.07787 4051 ft 234 kts 240°
2026-04-17 13:44 50.15178 9.05450 4038 ft 252 kts 244°
2026-04-17 13:45 50.14546 9.02987 4052 ft 239 kts 251°
2026-04-17 13:45 50.14008 9.00561 4078 ft 229 kts 250°
2026-04-17 13:45 50.13480 8.98331 4083 ft 208 kts 249°
2026-04-17 13:45 50.12992 8.96276 4087 ft 197 kts 250°
2026-04-17 13:46 50.12519 8.94296 4096 ft 194 kts 250°
2026-04-17 13:46 50.12051 8.92339 4113 ft 191 kts 250°
2026-04-17 13:46 50.11588 8.90395 4140 ft 191 kts 250°
2026-04-17 13:46 50.11126 8.88462 4146 ft 191 kts 250°
2026-04-17 13:47 50.10818 8.87172 4138 ft 191 kts 250°
2026-04-17 13:47 50.10207 8.84609 3923 ft 188 kts 250°
2026-04-17 13:47 50.09742 8.82662 3583 ft 191 kts 250°
2026-04-17 13:47 50.09284 8.80735 3348 ft 189 kts 250°
2026-04-17 13:48 50.08834 8.78848 3063 ft 181 kts 250°
2026-04-17 13:48 50.08543 8.77627 2935 ft 178 kts 250°
2026-04-17 13:48 50.08114 8.75840 2701 ft 177 kts 250°
2026-04-17 13:48 50.07687 8.74053 2449 ft 174 kts 250°
2026-04-17 13:49 50.07275 8.72325 2209 ft 175 kts 250°
2026-04-17 13:49 50.06852 8.70555 1985 ft 174 kts 250°
2026-04-17 13:49 50.06430 8.68789 1746 ft 174 kts 250°
2026-04-17 13:49 50.06027 8.67100 1530 ft 157 kts 250°
2026-04-17 13:50 50.05659 8.65561 1330 ft 149 kts 250°
2026-04-17 13:50 50.05301 8.64066 1133 ft 146 kts 250°
2026-04-17 13:50 50.04948 8.62589 939 ft 145 kts 250°
2026-04-17 13:50 50.04598 8.61134 767 ft 141 kts 248°
2026-04-17 13:51 50.04242 8.59686 521 ft 142 kts 251°
2026-04-17 13:51 50.03910 8.58247 382 ft 142 kts 249°
2026-04-17 13:51 50.03615 8.57011 364 ft 98 kts 250°
2026-04-17 13:51 50.03435 8.56257 365 ft 57 kts 250°
2026-04-17 13:52 50.03307 8.55700 361 ft 51 kts 254°
2026-04-17 13:52 50.03216 8.55304 362 ft 36 kts 246°
2026-04-17 13:52 50.03143 8.54991 362 ft 17 kts 250°
2026-04-17 13:52 50.03085 8.54737 354 ft 23 kts 252°
2026-04-17 13:53 50.03022 8.54430 348 ft 36 kts 256°
2026-04-17 13:53 50.03004 8.54300 351 ft 0 kts 257°
2026-04-17 13:53 50.03000 8.54263 350 ft 9 kts 262°
2026-04-17 13:53 50.02995 8.54202 342 ft 0 kts 262°
2026-04-17 13:54 50.02996 8.54197 344 ft 2 kts 282°
2026-04-17 13:54 50.03011 8.54130 346 ft 11 kts 289°
2026-04-17 13:55 50.03057 8.53716 346 ft 21 kts 271°
2026-04-17 13:55 50.03062 8.53673 354 ft 1 kts 71°
2026-04-17 13:55 50.03138 8.54001 348 ft 29 kts 70°
2026-04-17 13:56 50.03309 8.54444 354 ft 19 kts 13°
2026-04-17 13:56 50.03389 8.54434 356 ft 0 kts 342°
2026-04-17 13:58 50.03391 8.54432 353 ft 2 kts 342°
2026-04-17 13:58 50.03452 8.54402 357 ft 16 kts 342°
2026-04-17 13:59 50.03589 8.54327 360 ft 1 kts 341°
2026-04-17 13:59 50.03608 8.54318 358 ft 5 kts 341°
2026-04-17 13:59 50.03641 8.54314 361 ft 4 kts 17°
2026-04-17 14:00 50.03662 8.54337 358 ft 4 kts 38°
2026-04-17 14:00 50.03697 8.54370 359 ft 6 kts 21°
2026-04-17 14:00 50.03738 8.54368 357 ft 7 kts 349°
2026-04-17 14:00 50.03794 8.54339 359 ft 10 kts 342°
2026-04-17 14:01 50.03842 8.54353 357 ft 7 kts 32°
2026-04-17 14:01 50.03875 8.54416 353 ft 5 kts 76°
2026-04-17 14:01 50.03875 8.54449 351 ft 3 kts 87°
2026-04-17 14:01 50.03882 8.54483 360 ft 6 kts 71°
2026-04-17 14:02 50.03881 8.54558 355 ft 4 kts 144°
2026-04-17 14:02 50.03861 8.54565 357 ft 3 kts 167°
2026-04-17 14:02 50.03838 8.54576 356 ft 7 kts 164°
2026-04-17 14:02 50.03814 8.54588 354 ft 0 kts 161°